sat.trackr.live / text

‹ back to catalog

ONEWEB-0443

NORAD 51637 · 2022-012R

PAYLOAD ACTIVE UNKNOWN

§ Identity

Operator
Country
UK
Launch date
2022-02-10
Launch site
FRGUI
Launch vehicle
Mass (kg)
RCS (m²)

Purposes: comms

External: N2YO · Heavens-Above · Gunter

§ Orbital elements

Epoch: 2026-05-25T03:20:45.957120Z

Period
109.29 min
Inclination
87.9153°
Eccentricity
0.0002074
Mean motion
13.17651187 rev/d
Perigee alt
1,192.1 km
Apogee alt
1,195.3 km
Semi-major
7,571.8 km
B*
2.5121e-4
RAAN
10.4631°
Arg perigee
77.4550°
Mean anomaly
282.6814°
Rev number
21,068

§ Raw data

ONEWEB-04431 51637U 22012R   26145.13942080  .00000110  00000+0  25121-3 0  99992 51637  87.9153  10.4631 0002074  77.4550 282.6814 13.17651187210681

JSON: /api/v1/satellites/51637 · /tle

For live sub-satellite position, see the globe view (requires WebGL).

§ Visibility from observer

Set your observer location to see the next 7 days of passes ≥ 10°. The values pass through the URL so the page stays shareable.

No JS? Fill the form by hand. The geolocation button needs JavaScript.